ARABSAT-6A

Last updated on Tue Sep 16 2025 00:02:49 GMT+0000 (Coordinated Universal Time)

1 44186U 19021A 25258.59064265 .00000137 00000+0 00000+0 0 9994 2 44186 0.0580 327.0142 0007110 265.9108 4.9923 1.00267372 23401
UTC large
Height (km)
Speed (km/s)
/
Latitude / Longitude
Inclination (degrees)
Orbital Period (minutes)
Azimuth
Elevation
Range (km)
Doppler Factor

Next 0 passes for location: London (51.5072 / 0.1276)

Sorry there are no passes over London.